User: anonymous   Login
Location: Carrizo Plain National Monument
(35.0903°N, 119.7316°W)
Time: 12:19:31
(UTC-07:00)
Language:

PicSat - Orbit

View from above orbital plane
View from above orbital plane
View from above satellite
View from above satellite

Ground track
Ground track

The orbit data is extracted from the following two-line orbital elements,

1 43131U 18004W   20101.15299564 +.00001938 +00000-0 +80445-4 0  9996
2 43131 097.4532 173.4655 0007593 295.6029 064.4424 15.25052529124683
Epoch (UTC): 10 April 2020 03:40:18
Eccentricity: 0.0007593
inclination: 97.4532°
perigee height: 485 km
apogee height: 496 km
right ascension of ascending node: 173.4655°
argument of perigee: 295.6029°
revolutions per day: 15.25052529
mean anomaly at epoch: 64.4424°
orbit number at epoch: 12468

The dashed part of the orbit path shows where the satellite is in the earth's shadow,  

DLR